Date,TemperatureHighF,TemperatureAvgF,TemperatureLowF,DewpointHighF,DewpointAvgF,DewpointLowF,HumidityHigh,HumidityAvg,HumidityLow,PressureMaxIn,PressureMinIn,WindSpeedMaxMPH,WindSpeedAvgMPH,GustSpeedMaxMPH,PrecipitationSumIn
2013-7-1,85,70,54,59,52,45,90,56,28,27.37,27.29,10,2,10,0.00
2013-7-2,87,70,50,59,47,41,84,49,23,27.36,27.04,7,1,7,0.00
2013-7-3,95,73,51,56,48,40,80,46,18,27.24,27.01,21,2,21,0.00
2013-7-4,98,80,61,61,51,45,68,39,20,27.06,26.86,13,4,13,0.00
2013-7-5,100,82,66,63,56,50,64,43,23,26.99,26.85,18,5,18,0.00
2013-7-6,99,85,68,67,60,55,70,45,25,26.94,26.87,15,4,15,0.00
2013-7-7,98,84,68,70,65,60,93,55,34,27.18,26.95,16,2,16,0.09
2013-7-8,97,82,66,74,68,64,97,67,34,27.19,26.87,12,2,57,0.44
2013-7-9,100,84,68,72,67,55,95,62,26,27.20,27.01,11,3,11,0.00
2013-7-10,90,79,70,71,65,56,92,66,35,27.30,27.01,17,4,17,0.05
2013-7-11,98,83,68,70,66,59,89,59,34,27.21,27.00,15,5,15,0.00
2013-7-12,106,89,71,70,63,44,78,48,14,27.05,26.92,14,5,14,0.00
2013-7-13,105,91,73,70,64,57,77,45,25,27.14,26.94,8,3,8,0.00
2013-7-14,90,77,70,72,68,51,96,74,50,27.26,27.03,13,2,13,0.15
2013-7-15,89,76,64,100,62,52,98,66,5,27.97,27.21,15,4,15,0.05
2013-7-16,90,76,65,66,63,52,93,67,38,27.38,27.27,25,7,25,0.00
2013-7-17,79,66,61,66,61,48,95,85,63,27.42,27.21,11,2,11,0.00
2013-7-18,93,85,77,63,62,61,62,47,36,27.11,27.04,12,4,12,0.07
2013-7-19,100,80,67,73,66,50,86,65,36,27.14,26.95,12,2,12,0.00
2013-7-20,95,79,63,70,66,55,96,68,34,27.15,26.88,24,3,24,0.00
2013-7-21,94,77,59,65,60,56,93,62,36,27.13,26.95,11,4,11,0.00
2013-7-22,101,89,75,100,57,0,64,33,5,30.34,24.95,8,3,8,0.20
2013-7-23,98,86,69,66,62,8,72,46,7,27.17,24.30,10,3,10,0.22
2013-7-24,108,82,63,100,65,57,94,62,34,27.32,27.13,21,2,26,0.37
2013-7-25,95,73,64,71,66,58,95,80,56,27.32,27.04,21,3,21,0.09
2013-7-26,106,72,60,68,61,56,99,72,39,27.36,27.00,17,3,17,0.00
2013-7-27,94,63,58,60,56,54,92,77,63,27.29,27.05,16,3,16,0.04
2013-7-28,87,60,57,60,57,53,99,92,77,27.22,27.00,9,3,9,0.02
2013-7-29,88,66,60,69,64,59,99,91,74,27.32,27.07,7,2,7,0.02
2013-7-30,91,75,62,71,64,61,99,73,40,27.25,27.16,8,2,8,0.00
2013-7-31,90,80,67,72,66,61,99,66,38,27.39,27.21,8,3,8,0.17